Volver al catálogo

FENGYUN 1C DEB

ActivoSSO
NORAD 29858·DEBRIS·🇨🇳 China

Lanzado May 10, 1999 desde Taiyuan Satellite Launch Center

Loading…

Próximos Pases (próximas 24 horas)

TLE

ActualizadoSource: Space-Track

Época: Sep 14, 2026, 06:05 UTC

1 29858U 99025FC  26257.25416571  .00000548  00000-0  50505-3 0  9995
2 29858  99.2162 356.0033 0195784  55.0448 332.8065 13.78493493983494

Sigue FENGYUN 1C DEB en tiempo real con AllMySat

Download on the App Store